IW2NBW-3 Weather Reports


time (UTC)temp
C
wind
direction
speed
KPH
gust
KPH
rain 1hr
cm
rain 24hr
cm
rain mn
cm
humidity
%
barometer
mb
20260505151603 14 301 1.6 4.8 0.00 0.79 0.79 90 1013.8
20260505151503 14 301 1.6 4.8 0.00 0.79 0.79 90 1013.8
20260505151403 14 301 1.6 4.8 0.00 0.79 0.79 90 1013.8
20260505151303 14 301 1.6 4.8 0.00 0.79 0.79 90 1013.8
20260505151203 14 301 1.6 4.8 0.00 0.79 0.79 90 1013.8
20260505151103 14 299 0.0 4.8 0.00 0.79 0.79 90 1013.7
20260505151004 14 295 0.0 3.2 0.00 0.79 0.79 90 1013.7
20260505150903 14 294 0.0 3.2 0.00 0.79 0.79 90 1013.8
20260505150803 14 294 0.0 3.2 0.00 0.79 0.79 90 1013.7
20260505150703 14 294 0.0 3.2 0.00 0.79 0.79 90 1013.7
20260505150603 14 295 0.0 1.6 0.00 0.79 0.79 91 1013.7
20260505150503 14 294 0.0 1.6 0.00 0.79 0.79 91 1013.7
20260505150403 14 294 0.0 1.6 0.00 0.79 0.79 91 1013.8
20260505150303 14 294 0.0 1.6 0.00 0.79 0.79 91 1013.8
20260505150203 14 294 0.0 6.4 0.00 0.79 0.79 91 1013.8
20260505140603 15 304 1.6 8.0 0.00 0.79 0.79 88 1013.9
20260505140503 15 305 3.2 8.0 0.00 0.79 0.79 87 1013.9
20260505140403 15 305 1.6 8.0 0.00 0.79 0.79 87 1013.9
20260505140303 15 305 1.6 8.0 0.00 0.79 0.79 87 1013.9
20260505140203 15 305 1.6 8.0 0.00 0.79 0.79 87 1013.9
20260505130303 15 305 1.6 6.4 0.00 0.79 0.79 86 1014.2
20260505130203 15 305 1.6 6.4 0.00 0.79 0.79 86 1014.2
20260505130103 15 302 1.6 6.4 0.00 0.79 0.79 86 1014.2
20260505125003 15 295 0.0 4.8 0.00 0.79 0.79 86 1014.2
20260505124903 15 294 0.0 4.8 0.00 0.79 0.79 86 1014.2
20260505124803 15 293 0.0 4.8 0.00 0.79 0.79 86 1014.2
20260505124703 15 293 0.0 4.8 0.00 0.79 0.79 86 1014.2
20260505124603 15 293 0.0 4.8 0.00 0.79 0.79 86 1014.3
20260505124503 15 292 0.0 4.8 0.00 0.79 0.79 87 1014.3
20260505124403 15 291 0.0 4.8 0.00 0.79 0.79 87 1014.3
20260505124303 15 289 0.0 6.4 0.00 0.79 0.79 87 1014.3
20260505124203 15 289 0.0 6.4 0.00 0.79 0.79 87 1014.3
20260505124103 15 288 0.0 6.4 0.00 0.79 0.79 87 1014.3
20260505124003 15 287 1.6 8.0 0.00 0.79 0.79 86 1014.3
20260505123903 15 288 1.6 8.0 0.00 0.79 0.79 87 1014.4
20260505123803 15 287 1.6 8.0 0.00 0.79 0.79 87 1014.4
20260505123703 15 287 1.6 8.0 0.00 0.79 0.79 87 1014.4
20260505123604 15 287 1.6 8.0 0.00 0.79 0.79 87 1014.4
20260505123504 15 288 1.6 8.0 0.00 0.79 0.79 87 1014.4
20260505123404 15 289 1.6 8.0 0.00 0.79 0.79 87 1014.4
20260505123304 15 289 1.6 8.0 0.00 0.79 0.79 87 1014.4
20260505123204 15 289 1.6 8.0 0.00 0.79 0.79 87 1014.4
20260505123104 15 289 1.6 8.0 0.00 0.79 0.79 87 1014.4
20260505123004 15 292 0.0 6.4 0.00 0.79 0.79 87 1014.4
20260505122904 15 293 0.0 6.4 0.00 0.79 0.79 87 1014.4
20260505122804 15 293 0.0 6.4 0.00 0.79 0.79 87 1014.4
20260505122704 15 293 0.0 6.4 0.00 0.79 0.79 87 1014.4
20260505122604 15 295 1.6 8.0 0.00 0.79 0.79 87 1014.4
20260505122504 15 295 1.6 8.0 0.00 0.79 0.79 88 1014.4
20260505122404 15 296 1.6 8.0 0.00 0.79 0.79 88 1014.4
20260505122305 15 295 1.6 9.7 0.00 0.79 0.79 88 1014.4
20260505122204 15 294 1.6 9.7 0.00 0.79 0.79 88 1014.4
20260505122104 15 294 1.6 9.7 0.00 0.79 0.79 89 1014.5
20260505122004 14 293 1.6 9.7 0.00 0.79 0.79 89 1014.5
20260505121904 14 292 3.2 9.7 0.00 0.79 0.79 89 1014.4
20260505121804 14 292 3.2 9.7 0.00 0.79 0.79 88 1014.4
20260505121704 14 291 3.2 9.7 0.00 0.79 0.79 88 1014.4
20260505121604 14 290 3.2 9.7 0.00 0.79 0.79 88 1014.4
20260505121504 14 290 3.2 9.7 0.00 0.79 0.79 88 1014.4
20260505121404 14 290 3.2 9.7 0.00 0.79 0.79 88 1014.4
20260505121303 14 288 3.2 9.7 0.00 0.79 0.79 88 1014.4
20260505121203 14 288 1.6 8.0 0.00 0.79 0.79 88 1014.4
20260505121103 14 287 1.6 8.0 0.00 0.79 0.79 88 1014.3
20260505121004 14 287 1.6 8.0 0.00 0.79 0.79 88 1014.4
20260505120903 14 287 1.6 8.0 0.00 0.79 0.79 88 1014.4
20260505120803 14 286 1.6 8.0 0.00 0.79 0.79 89 1014.4
20260505120703 14 286 1.6 8.0 0.00 0.79 0.79 89 1014.4
20260505120603 14 286 1.6 8.0 0.00 0.79 0.79 89 1014.4
20260505120503 14 286 1.6 8.0 0.00 0.79 0.79 88 1014.5
20260505120404 14 288 1.6 8.0 0.00 0.79 0.79 89 1014.5
20260505120303 14 290 1.6 8.0 0.00 0.79 0.79 88 1014.4
20260505120204 14 290 1.6 8.0 0.00 0.79 0.79 89 1014.5
20260505120103 14 293 1.6 8.0 0.00 0.79 0.79 89 1014.5
20260505120004 14 294 1.6 8.0 0.00 0.79 0.79 89 1014.4
20260505115903 14 295 1.6 8.0 0.00 0.79 0.79 89 1014.4
20260505115803 14 295 1.6 8.0 0.00 0.79 0.79 89 1014.5
20260505115703 14 295 1.6 8.0 0.00 0.79 0.79 89 1014.4
20260505115603 14 297 1.6 8.0 0.00 0.79 0.79 89 1014.4
20260505115503 14 298 1.6 8.0 0.00 0.79 0.79 89 1014.5
20260505115403 14 297 1.6 8.0 0.00 0.79 0.79 89 1014.5
20260505115305 14 297 1.6 8.0 0.00 0.79 0.79 88 1014.5
20260505115203 14 297 1.6 8.0 0.00 0.79 0.79 88 1014.5
20260505115103 14 298 1.6 8.0 0.00 0.79 0.79 88 1014.5
20260505115003 14 298 1.6 8.0 0.00 0.79 0.79 88 1014.5
20260505114903 14 298 1.6 8.0 0.00 0.79 0.79 88 1014.5
20260505114803 14 299 1.6 8.0 0.00 0.79 0.79 88 1014.5
20260505114703 14 299 1.6 8.0 0.00 0.79 0.79 88 1014.5
20260505114603 14 299 0.0 8.0 0.00 0.79 0.79 88 1014.5
20260505114503 14 296 0.0 8.0 0.00 0.79 0.79 88 1014.5
20260505114403 14 299 0.0 8.0 0.00 0.79 0.79 88 1014.6
20260505114303 14 302 0.0 6.4 0.00 0.79 0.79 88 1014.6
20260505114203 14 297 0.0 6.4 0.00 0.79 0.79 88 1014.6
20260505114103 14 293 0.0 6.4 0.00 0.79 0.79 89 1014.6
20260505114003 14 291 0.0 6.4 0.00 0.79 0.79 89 1014.6
20260505113903 14 290 1.6 9.7 0.00 0.79 0.79 89 1014.6
20260505113803 14 290 1.6 9.7 0.00 0.79 0.79 89 1014.6
20260505113703 14 291 1.6 9.7 0.00 0.79 0.79 89 1014.5
20260505113603 14 291 1.6 9.7 0.00 0.79 0.79 89 1014.5
20260505113503 14 290 1.6 9.7 0.00 0.79 0.79 88 1014.6
20260505113404 14 291 1.6 9.7 0.00 0.79 0.79 88 1014.6
20260505113304 14 291 1.6 9.7 0.00 0.79 0.79 88 1014.6
20260505113204 14 291 1.6 9.7 0.00 0.79 0.79 88 1014.6
20260505113104 14 290 1.6 9.7 0.00 0.79 0.79 88 1014.6
20260505113004 14 290 1.6 9.7 0.00 0.79 0.79 87 1014.6
20260505112904 14 290 1.6 8.0 0.00 0.79 0.79 88 1014.6
20260505112804 14 291 1.6 8.0 0.00 0.79 0.79 88 1014.6
20260505112704 14 290 1.6 8.0 0.00 0.79 0.79 89 1014.5
20260505112604 14 290 1.6 8.0 0.00 0.79 0.79 89 1014.5
20260505112504 14 289 1.6 8.0 0.00 0.79 0.79 89 1014.5
20260505112404 14 288 1.6 8.0 0.00 0.79 0.79 88 1014.5
20260505112305 14 288 1.6 8.0 0.00 0.79 0.79 88 1014.5
20260505112204 14 287 1.6 8.0 0.00 0.79 0.79 88 1014.5
20260505112104 13 287 1.6 8.0 0.00 0.79 0.79 89 1014.5
20260505112004 13 288 1.6 8.0 0.00 0.79 0.79 89 1014.5
20260505111904 13 287 1.6 12.9 0.00 0.79 0.79 89 1014.6
20260505111804 13 288 1.6 12.9 0.00 0.79 0.79 89 1014.6
20260505111704 13 288 1.6 12.9 0.00 0.79 0.79 89 1014.6
20260505111604 13 289 1.6 12.9 0.00 0.79 0.79 90 1014.6
20260505111504 13 290 1.6 12.9 0.00 0.79 0.79 89 1014.6
20260505111404 13 291 1.6 12.9 0.00 0.79 0.79 90 1014.7
20260505111304 13 291 3.2 12.9 0.00 0.79 0.79 89 1014.7
20260505111204 13 290 3.2 12.9 0.00 0.79 0.79 89 1014.7
20260505111104 13 290 3.2 12.9 0.00 0.79 0.79 89 1014.7
20260505111004 13 290 3.2 12.9 0.00 0.79 0.79 89 1014.7
20260505110904 13 291 3.2 8.0 0.00 0.79 0.79 89 1014.7
20260505110803 13 290 1.6 8.0 0.00 0.79 0.79 90 1014.7
20260505110703 13 290 1.6 8.0 0.00 0.79 0.79 90 1014.7
20260505110603 13 289 1.6 9.7 0.00 0.79 0.79 90 1014.7
20260505110503 13 289 1.6 11.3 0.00 0.79 0.79 90 1014.7
20260505110403 13 288 3.2 11.3 0.00 0.79 0.79 90 1014.7
20260505110303 13 288 3.2 11.3 0.00 0.79 0.79 90 1014.7
20260505110203 13 288 3.2 11.3 0.00 0.79 0.79 90 1014.7
20260505102203 13 289 3.2 12.9 0.05 0.79 0.79 91 1014.7
20260505102103 13 290 3.2 12.9 0.05 0.79 0.79 91 1014.8
20260505102003 13 291 3.2 12.9 0.05 0.79 0.79 90 1014.8
20260505101903 13 292 3.2 12.9 0.05 0.79 0.79 91 1014.8
20260505101803 13 293 3.2 12.9 0.05 0.79 0.79 91 1014.8
20260505101703 13 293 3.2 12.9 0.05 0.79 0.79 91 1014.7
20260505101604 13 293 3.2 12.9 0.05 0.79 0.79 90 1014.7
20260505101504 12 294 3.2 12.9 0.05 0.79 0.79 90 1014.7
20260505101404 12 294 3.2 12.9 0.05 0.79 0.79 90 1014.7
20260505101304 13 294 1.6 11.3 0.05 0.79 0.79 91 1014.7
20260505101204 13 294 1.6 11.3 0.05 0.79 0.79 91 1014.7
20260505101104 13 295 1.6 11.3 0.05 0.79 0.79 91 1014.7
20260505101004 13 295 1.6 11.3 0.05 0.79 0.79 91 1014.7
20260505100904 13 294 1.6 9.7 0.05 0.79 0.79 92 1014.7
20260505100804 13 293 1.6 8.0 0.05 0.79 0.79 91 1014.7
20260505100704 13 293 1.6 8.0 0.05 0.79 0.79 91 1014.7
20260505100604 13 293 1.6 8.0 0.05 0.79 0.79 92 1014.7
20260505100504 13 292 1.6 8.0 0.05 0.79 0.79 92 1014.8
20260505100404 13 292 1.6 8.0 0.05 0.79 0.79 92 1014.8
20260505100304 13 291 1.6 8.0 0.05 0.79 0.79 92 1014.8
20260505100204 13 292 1.6 8.0 0.05 0.79 0.79 92 1014.8
20260505100104 13 292 1.6 8.0 0.05 0.79 0.79 92 1014.8
20260505100004 13 292 1.6 8.0 0.05 0.79 0.79 92 1014.7
20260505095903 13 291 1.6 6.4 0.05 0.79 0.79 92 1014.7
20260505095803 13 291 1.6 6.4 0.05 0.79 0.79 92 1014.7
20260505095703 13 292 1.6 6.4 0.05 0.79 0.79 92 1014.7
20260505095603 13 293 1.6 6.4 0.05 0.79 0.79 91 1014.7
20260505095503 13 293 1.6 9.7 0.05 0.79 0.79 92 1014.7
20260505095403 13 294 1.6 9.7 0.05 0.79 0.79 91 1014.7
20260505095305 13 295 1.6 9.7 0.05 0.79 0.79 91 1014.7
20260505095203 13 295 1.6 9.7 0.05 0.79 0.79 91 1014.7
20260505095103 13 295 1.6 9.7 0.05 0.79 0.79 91 1014.7
20260505095005 13 296 1.6 9.7 0.05 0.79 0.79 91 1014.8
20260505094904 13 297 1.6 9.7 0.05 0.79 0.79 91 1014.8
20260505094803 13 297 1.6 9.7 0.05 0.79 0.79 91 1014.8
20260505094703 13 297 1.6 9.7 0.05 0.79 0.79 91 1014.8
20260505094603 13 297 1.6 9.7 0.05 0.79 0.79 91 1014.8
20260505094503 13 298 0.0 8.0 0.05 0.79 0.79 91 1014.9
20260505094403 13 297 0.0 8.0 0.05 0.79 0.79 91 1014.8
20260505094303 13 297 0.0 8.0 0.03 0.76 0.76 91 1014.8
20260505094203 13 298 0.0 8.0 0.03 0.76 0.76 91 1014.8
20260505094103 13 298 0.0 8.0 0.05 0.76 0.76 91 1014.9
20260505094003 13 297 0.0 8.0 0.05 0.76 0.76 90 1014.9
20260505093903 13 297 0.0 8.0 0.05 0.76 0.76 91 1014.8
20260505093803 13 289 0.0 3.2 0.05 0.76 0.76 91 1014.8
20260505093703 13 286 0.0 3.2 0.05 0.76 0.76 91 1014.9
20260505093603 13 286 0.0 4.8 0.05 0.76 0.76 91 1014.9
20260505093503 13 284 0.0 4.8 0.05 0.76 0.76 91 1014.9
20260505093403 13 284 0.0 4.8 0.05 0.76 0.76 91 1014.9
20260505093303 13 284 0.0 4.8 0.05 0.76 0.76 90 1014.9
20260505093203 13 284 0.0 6.4 0.05 0.76 0.76 90 1014.8
20260505093103 13 282 1.6 8.0 0.05 0.76 0.76 90 1014.8
20260505093004 13 282 1.6 9.7 0.03 0.74 0.74 90 1014.8
20260505092903 13 282 1.6 9.7 0.03 0.74 0.74 90 1014.9
20260505092803 13 282 1.6 9.7 0.03 0.74 0.74 90 1014.9
20260505092703 13 283 1.6 9.7 0.03 0.74 0.74 90 1014.9
20260505092603 13 282 1.6 9.7 0.03 0.74 0.74 90 1014.8
20260505092503 13 282 1.6 9.7 0.03 0.74 0.74 90 1014.8
20260505092403 13 282 1.6 9.7 0.03 0.74 0.74 89 1014.8
20260505092305 13 282 1.6 9.7 0.03 0.74 0.74 89 1014.8
20260505092203 13 282 1.6 9.7 0.03 0.74 0.74 89 1014.8
20260505092103 13 283 0.0 9.7 0.03 0.74 0.74 90 1014.8
20260505092003 13 289 0.0 4.8 0.03 0.74 0.74 90 1014.8
20260505091903 13 291 0.0 6.4 0.03 0.74 0.74 90 1014.8
20260505091803 13 291 0.0 6.4 0.03 0.74 0.74 90 1014.8
20260505091703 13 291 0.0 6.4 0.03 0.74 0.74 91 1014.8
20260505091603 13 291 0.0 6.4 0.03 0.74 0.74 91 1014.8
20260505091504 13 291 0.0 6.4 0.03 0.74 0.74 90 1014.8
20260505091404 13 290 0.0 6.4 0.03 0.74 0.74 90 1014.7
20260505091304 13 290 0.0 6.4 0.03 0.74 0.74 90 1014.8
20260505091204 13 290 0.0 6.4 0.03 0.74 0.74 90 1014.8
20260505091104 13 289 0.0 6.4 0.03 0.74 0.74 90 1014.8
20260505091004 13 289 0.0 6.4 0.03 0.74 0.74 90 1014.8
20260505090904 13 284 0.0 3.2 0.03 0.74 0.74 91 1014.8
20260505090804 13 284 0.0 3.2 0.03 0.74 0.74 91 1014.7
20260505090704 13 284 0.0 3.2 0.03 0.74 0.74 91 1014.7
20260505090604 13 284 0.0 3.2 0.03 0.74 0.74 91 1014.8
20260505090504 13 284 0.0 3.2 0.03 0.74 0.74 91 1014.7
20260505090404 13 285 0.0 1.6 0.03 0.74 0.74 91 1014.7
20260505090304 13 285 0.0 1.6 0.03 0.74 0.74 91 1014.7
20260505090204 13 285 0.0 1.6 0.03 0.74 0.74 91 1014.7
20260505090104 13 283 0.0 1.6 0.03 0.74 0.74 91 1014.7
20260505090004 13 292 0.0 1.6 0.03 0.74 0.74 92 1014.7
20260505085904 13 292 0.0 1.6 0.03 0.74 0.74 92 1014.7
20260505085804 13 292 0.0 1.6 0.03 0.74 0.74 92 1014.6
20260505085704 13 292 0.0 1.6 0.03 0.74 0.74 92 1014.6
20260505085604 13 292 0.0 1.6 0.03 0.74 0.74 92 1014.6
20260505085504 13 292 0.0 1.6 0.03 0.74 0.74 92 1014.5
20260505085403 13 292 0.0 1.6 0.03 0.74 0.74 92 1014.5
20260505085304 13 292 0.0 1.6 0.03 0.74 0.74 92 1014.5
20260505085203 13 292 0.0 1.6 0.03 0.74 0.74 92 1014.5
20260505085103 13 292 0.0 1.6 0.03 0.74 0.74 92 1014.5
20260505085004 13 0 0.0 0.0 0.03 0.74 0.74 92 1014.5
20260505084903 13 0 0.0 0.0 0.03 0.74 0.74 92 1014.5
20260505084803 13 0 0.0 0.0 0.03 0.74 0.74 92 1014.5
20260505084703 13 0 0.0 0.0 0.03 0.74 0.74 92 1014.4
20260505084603 13 0 0.0 0.0 0.03 0.74 0.74 92 1014.4
20260505084503 13 0 0.0 0.0 0.03 0.74 0.74 92 1014.5
20260505084403 13 0 0.0 0.0 0.03 0.74 0.74 92 1014.5
20260505084303 13 0 0.0 0.0 0.03 0.74 0.74 92 1014.4
20260505084203 13 0 0.0 0.0 0.03 0.74 0.74 92 1014.5
20260505084103 13 0 0.0 0.0 0.00 0.71 0.71 92 1014.5
20260505084003 13 0 0.0 0.0 0.00 0.71 0.71 92 1014.4
20260505083903 13 0 0.0 0.0 0.00 0.71 0.71 92 1014.4
20260505083803 13 0 0.0 0.0 0.00 0.71 0.71 92 1014.4
20260505083703 13 0 0.0 0.0 0.00 0.71 0.71 92 1014.5
20260505083603 13 0 0.0 0.0 0.00 0.71 0.71 92 1014.5
20260505083503 13 0 0.0 0.0 0.00 0.71 0.71 92 1014.5
20260505083403 13 0 0.0 0.0 0.00 0.71 0.71 92 1014.4
20260505083303 13 0 0.0 0.0 0.00 0.71 0.71 92 1014.4
20260505083203 13 0 0.0 0.0 0.00 0.71 0.71 92 1014.4
20260505083103 13 0 0.0 0.0 0.00 0.71 0.71 92 1014.4
20260505083003 13 0 0.0 0.0 0.00 0.71 0.71 92 1014.4
20260505082904 13 0 0.0 0.0 0.00 0.71 0.71 92 1014.5
20260505082803 13 0 0.0 0.0 0.00 0.71 0.71 92 1014.5
20260505082703 13 289 0.0 4.8 0.00 0.71 0.71 92 1014.4
20260505082603 13 287 0.0 4.8 0.00 0.71 0.71 92 1014.4
20260505082503 13 288 0.0 4.8 0.00 0.71 0.71 92 1014.5
20260505082403 13 288 0.0 4.8 0.00 0.71 0.71 91 1014.4
20260505082304 13 288 0.0 4.8 0.00 0.71 0.71 92 1014.4
20260505082203 13 288 0.0 4.8 0.00 0.71 0.71 92 1014.3
20260505082103 13 288 1.6 4.8 0.00 0.71 0.71 92 1014.4
20260505082003 13 287 1.6 4.8 0.00 0.71 0.71 91 1014.4
20260505081903 13 287 1.6 4.8 0.00 0.71 0.71 91 1014.3
20260505081803 13 287 1.6 4.8 0.00 0.71 0.71 91 1014.3
20260505081703 13 287 1.6 4.8 0.00 0.71 0.71 91 1014.4
20260505081603 13 287 0.0 4.8 0.00 0.71 0.71 91 1014.3
20260505081503 13 287 0.0 4.8 0.00 0.71 0.71 92 1014.3
20260505081403 13 287 0.0 4.8 0.03 0.71 0.71 92 1014.3
20260505081303 13 287 0.0 4.8 0.03 0.71 0.71 91 1014.3
20260505081204 13 287 1.6 4.8 0.03 0.71 0.71 92 1014.3
20260505081104 13 288 0.0 3.2 0.03 0.71 0.71 92 1014.3
20260505081004 13 288 0.0 3.2 0.03 0.71 0.71 92 1014.3
20260505080904 12 288 0.0 3.2 0.03 0.71 0.71 91 1014.3
20260505080804 12 288 0.0 3.2 0.03 0.71 0.71 92 1014.3
20260505080704 12 289 0.0 3.2 0.03 0.71 0.71 91 1014.2
20260505080604 12 289 0.0 3.2 0.03 0.71 0.71 91 1014.2
20260505080504 12 288 0.0 3.2 0.03 0.71 0.71 91 1014.2
20260505080404 12 287 0.0 3.2 0.03 0.71 0.71 91 1014.2
20260505080304 12 284 0.0 6.4 0.03 0.71 0.71 91 1014.2
20260505080204 12 283 0.0 6.4 0.03 0.71 0.71 91 1014.2
20260505080104 12 283 1.6 6.4 0.03 0.71 0.71 91 1014.2
20260505080004 12 283 1.6 6.4 0.03 0.71 0.71 92 1014.2
20260505075904 12 283 1.6 6.4 0.03 0.71 0.71 92 1014.2
20260505075804 12 283 1.6 6.4 0.03 0.71 0.71 92 1014.3
20260505075703 12 283 1.6 9.7 0.03 0.71 0.71 91 1014.3
20260505075604 12 283 1.6 9.7 0.03 0.71 0.71 91 1014.2
20260505075504 12 283 3.2 9.7 0.05 0.71 0.71 91 1014.2
20260505075403 12 284 3.2 9.7 0.05 0.71 0.71 91 1014.2
20260505075304 12 284 3.2 9.7 0.05 0.71 0.71 91 1014.2
20260505075203 12 284 3.2 9.7 0.05 0.71 0.71 92 1014.2
20260505075103 12 284 3.2 9.7 0.05 0.71 0.71 91 1014.2
20260505075004 12 284 4.8 11.3 0.05 0.71 0.71 91 1014.2
20260505074903 12 284 4.8 11.3 0.05 0.71 0.71 91 1014.2
20260505074803 12 284 4.8 11.3 0.05 0.71 0.71 91 1014.2
20260505074703 12 284 3.2 11.3 0.05 0.71 0.71 91 1014.2
20260505074603 12 285 3.2 11.3 0.05 0.71 0.71 92 1014.2
20260505074503 12 284 3.2 11.3 0.05 0.71 0.71 92 1014.2
20260505074403 12 284 1.6 11.3 0.05 0.71 0.71 92 1014.2
20260505074303 12 284 1.6 11.3 0.05 0.71 0.71 92 1014.1
20260505074203 12 285 1.6 11.3 0.05 0.71 0.71 92 1014.1
20260505074103 12 284 1.6 11.3 0.05 0.71 0.71 92 1014.2
20260505074003 12 284 1.6 8.0 0.05 0.71 0.71 92 1014.2
20260505073903 12 284 1.6 8.0 0.05 0.71 0.71 92 1014.2
20260505073803 12 284 1.6 8.0 0.05 0.71 0.71 92 1014.1
20260505073703 12 284 3.2 9.7 0.05 0.71 0.71 92 1014.1
20260505073603 12 284 3.2 12.9 0.05 0.71 0.71 92 1014.2
20260505073503 12 284 3.2 12.9 0.05 0.71 0.71 92 1014.1
20260505073403 12 283 3.2 12.9 0.05 0.71 0.71 92 1014.1
20260505073303 12 283 3.2 12.9 0.08 0.71 0.71 92 1014.1
20260505073203 12 282 4.8 12.9 0.08 0.71 0.71 92 1014.1
20260505073103 12 282 4.8 12.9 0.08 0.71 0.71 92 1014.1
20260505073003 12 283 4.8 12.9 0.08 0.71 0.71 92 1014.1
20260505072903 12 283 4.8 12.9 0.08 0.71 0.71 92 1014.1
20260505072803 12 282 4.8 12.9 0.08 0.71 0.71 92 1014.1
20260505072703 12 283 4.8 12.9 0.10 0.71 0.71 92 1014.1
20260505072603 12 282 4.8 11.3 0.10 0.71 0.71 92 1014.1
20260505072503 12 283 4.8 11.3 0.10 0.71 0.71 92 1014.1
20260505072403 12 283 4.8 11.3 0.10 0.71 0.71 92 1014.1
20260505072305 12 282 4.8 11.3 0.10 0.71 0.71 92 1014.2
20260505072203 12 283 3.2 11.3 0.10 0.71 0.71 92 1014.1
20260505072103 12 283 3.2 11.3 0.13 0.71 0.71 92 1014.1
20260505072003 12 283 3.2 11.3 0.13 0.71 0.71 92 1014.1
20260505071903 12 283 3.2 11.3 0.13 0.71 0.71 92 1014.1
20260505071803 12 283 3.2 11.3 0.13 0.71 0.71 92 1014.2
20260505071703 12 283 1.6 11.3 0.15 0.71 0.71 92 1014.2
20260505071603 12 283 1.6 11.3 0.15 0.71 0.71 93 1014.2
20260505071503 12 283 1.6 11.3 0.15 0.71 0.71 93 1014.2
20260505071404 12 283 1.6 6.4 0.13 0.71 0.71 93 1014.2
20260505071304 12 283 1.6 8.0 0.15 0.71 0.71 93 1014.2
20260505071204 12 283 1.6 8.0 0.15 0.71 0.71 93 1014.2
20260505071104 12 283 1.6 8.0 0.15 0.71 0.71 93 1014.2
20260505071003 12 283 1.6 8.0 0.20 0.71 0.71 93 1014.2
20260505070904 12 283 1.6 8.0 0.20 0.71 0.71 93 1014.2
20260505070804 12 283 1.6 8.0 0.23 0.71 0.71 93 1014.2
20260505070704 12 282 1.6 8.0 0.23 0.71 0.71 93 1014.3
20260505070604 12 282 1.6 8.0 0.25 0.71 0.71 93 1014.3
20260505070504 12 282 1.6 8.0 0.25 0.71 0.71 93 1014.3
20260505070404 12 282 0.0 8.0 0.28 0.71 0.71 93 1014.3
20260505070304 12 280 0.0 4.8 0.30 0.71 0.71 93 1014.3
20260505070204 12 277 0.0 4.8 0.30 0.71 0.71 93 1014.3
20260505070104 12 277 0.0 4.8 0.33 0.71 0.71 93 1014.2
20260505070004 12 277 0.0 4.8 0.33 0.71 0.71 93 1014.2
20260505065904 12 277 0.0 4.8 0.33 0.71 0.71 93 1014.4
20260505065804 12 285 0.0 1.6 0.36 0.71 0.71 93 1014.4
20260505065704 12 285 0.0 1.6 0.36 0.71 0.71 93 1014.4
20260505065603 12 285 0.0 1.6 0.36 0.69 0.69 93 1014.4
20260505065504 12 285 0.0 1.6 0.36 0.69 0.69 93 1014.4
20260505065403 12 285 0.0 1.6 0.38 0.69 0.69 93 1014.3
20260505065304 12 285 0.0 1.6 0.38 0.69 0.69 93 1014.3
20260505065203 12 285 0.0 1.6 0.41 0.69 0.69 93 1014.3
20260505065103 12 284 0.0 1.6 0.41 0.69 0.69 93 1014.2
20260505065004 12 284 0.0 3.2 0.41 0.69 0.69 93 1014.2
20260505064903 12 284 0.0 3.2 0.43 0.69 0.69 93 1014.3
20260505064803 12 284 0.0 4.8 0.43 0.69 0.69 93 1014.3
20260505064703 12 283 0.0 6.4 0.43 0.69 0.69 93 1014.3
20260505064603 12 283 0.0 6.4 0.43 0.69 0.69 93 1014.2
20260505064503 12 283 1.6 6.4 0.43 0.69 0.69 93 1014.2
20260505064403 12 283 1.6 6.4 0.43 0.69 0.69 93 1014.2
20260505064303 12 283 1.6 8.0 0.43 0.66 0.66 93 1014.1
20260505064203 12 283 1.6 8.0 0.43 0.66 0.66 93 1014.1
20260505064103 12 282 1.6 8.0 0.43 0.66 0.66 93 1014.1
20260505064003 12 281 3.2 9.7 0.43 0.66 0.66 93 1014.1
20260505063903 12 281 3.2 9.7 0.43 0.66 0.66 93 1014.2
20260505063803 12 280 3.2 9.7 0.43 0.66 0.66 93 1014.1
20260505063704 12 281 3.2 11.3 0.43 0.66 0.66 93 1014.1
20260505063603 12 281 3.2 11.3 0.43 0.66 0.66 93 1014.1
20260505063503 12 281 4.8 11.3 0.46 0.66 0.66 93 1014.1
20260505063403 12 281 4.8 11.3 0.43 0.64 0.64 93 1014.1
20260505063303 12 281 4.8 11.3 0.43 0.64 0.64 93 1014.1
20260505063203 12 281 4.8 11.3 0.43 0.64 0.64 92 1014.1
20260505063103 12 282 4.8 11.3 0.43 0.64 0.64 92 1014.1
20260505063003 12 283 4.8 11.3 0.43 0.64 0.64 92 1014.1
20260505062903 12 283 4.8 11.3 0.46 0.64 0.64 92 1014.0
20260505062803 12 283 4.8 11.3 0.43 0.61 0.61 92 1013.9
20260505062703 12 283 4.8 11.3 0.43 0.61 0.61 92 1013.9
20260505062603 12 283 4.8 11.3 0.46 0.61 0.61 92 1013.9
20260505062503 12 283 4.8 11.3 0.46 0.61 0.61 92 1014.0
20260505062403 12 282 4.8 11.3 0.46 0.61 0.61 92 1014.0
20260505062304 12 282 4.8 11.3 0.46 0.61 0.61 92 1014.1
20260505062203 12 282 4.8 11.3 0.48 0.61 0.61 92 1014.1
20260505062104 12 282 4.8 11.3 0.46 0.61 0.61 92 1014.0
20260505062004 12 282 4.8 11.3 0.46 0.61 0.61 92 1014.2
20260505061904 12 282 3.2 11.3 0.46 0.61 0.61 92 1014.2
20260505061804 12 282 3.2 8.0 0.48 0.61 0.61 91 1014.1
20260505061704 12 283 3.2 8.0 0.46 0.58 0.58 91 1014.1
20260505061604 12 283 3.2 8.0 0.46 0.58 0.58 91 1014.2
20260505061504 12 283 1.6 8.0 0.46 0.58 0.58 91 1014.1
20260505061404 12 284 1.6 8.0 0.46 0.56 0.56 91 1014.1
20260505061304 12 285 1.6 6.4 0.46 0.56 0.56 91 1014.1
20260505061204 12 285 1.6 6.4 0.43 0.53 0.53 91 1014.2
20260505061104 12 286 1.6 4.8 0.43 0.51 0.51 91 1014.2
20260505061004 12 286 1.6 4.8 0.41 0.51 0.51 91 1014.3
20260505060904 12 286 1.6 4.8 0.38 0.48 0.48 91 1014.3
20260505060804 12 286 0.0 4.8 0.36 0.46 0.46 91 1014.2
20260505060704 12 286 0.0 4.8 0.33 0.43 0.43 91 1014.4
20260505060604 12 286 0.0 4.8 0.33 0.43 0.43 91 1014.4
20260505060504 12 285 0.0 4.8 0.33 0.43 0.43 91 1014.5
20260505060404 12 286 0.0 4.8 0.30 0.41 0.41 91 1014.5
20260505060304 12 284 0.0 1.6 0.30 0.41 0.41 91 1014.5
20260505060204 12 284 0.0 1.6 0.28 0.38 0.38 91 1014.5
20260505060104 12 0 0.0 0.0 0.25 0.36 0.38 90 1014.5
20260505060004 12 0 0.0 0.0 0.25 0.36 0.36 90 1014.4
20260505055903 12 0 0.0 0.0 0.25 0.33 0.33 90 1014.4
20260505055803 12 0 0.0 0.0 0.25 0.33 0.33 90 1014.5
20260505055703 12 0 0.0 0.0 0.23 0.33 0.33 90 1014.4
20260505055603 12 0 0.0 0.0 0.23 0.33 0.33 90 1014.4
20260505055503 12 0 0.0 0.0 0.23 0.30 0.30 90 1014.5
20260505055403 12 0 0.0 0.0 0.23 0.30 0.30 90 1014.6
20260505055304 12 0 0.0 0.0 0.20 0.28 0.30 90 1014.6
20260505055203 12 0 0.0 0.0 0.20 0.28 0.28 90 1014.6
20260505055103 12 276 0.0 3.2 0.20 0.28 0.28 90 1014.6
20260505055003 12 276 0.0 3.2 0.18 0.25 0.25 90 1014.6
20260505054903 12 276 0.0 3.2 0.18 0.25 0.25 90 1014.7
20260505054803 12 276 0.0 3.2 0.18 0.25 0.25 90 1014.7
20260505054703 12 276 0.0 3.2 0.15 0.23 0.23 90 1014.6
20260505054603 12 276 1.6 3.2 0.15 0.23 0.23 89 1014.6
20260505054503 12 276 1.6 3.2 0.15 0.23 0.23 89 1014.6
20260505054403 12 276 1.6 3.2 0.15 0.23 0.23 89 1014.6
20260505054304 12 276 1.6 3.2 0.15 0.23 0.23 89 1014.6
20260505054203 12 276 1.6 4.8 0.15 0.23 0.23 89 1014.6
20260505054103 12 277 1.6 4.8 0.15 0.23 0.23 89 1014.6
20260505054003 12 278 1.6 4.8 0.15 0.23 0.23 89 1014.5
20260505053903 12 278 1.6 4.8 0.15 0.23 0.23 89 1014.5
20260505053803 12 278 1.6 4.8 0.15 0.23 0.23 89 1014.5
20260505053703 12 279 1.6 4.8 0.15 0.23 0.23 89 1014.4
20260505053603 12 279 1.6 4.8 0.15 0.20 0.20 89 1014.2
20260505053503 12 279 1.6 4.8 0.15 0.20 0.20 89 1014.2
20260505053403 12 280 1.6 4.8 0.15 0.20 0.20 89 1014.2
20260505053303 12 280 1.6 4.8 0.15 0.20 0.20 89 1014.2
20260505053203 12 280 1.6 4.8 0.15 0.20 0.20 88 1014.2
20260505053103 12 280 1.6 4.8 0.15 0.20 0.20 88 1014.2
20260505053003 12 280 1.6 6.4 0.15 0.18 0.18 88 1014.2
20260505052903 12 280 1.6 6.4 0.15 0.18 0.18 88 1014.2
20260505052804 12 280 1.6 6.4 0.15 0.18 0.18 88 1014.2
20260505052704 12 280 1.6 6.4 0.15 0.18 0.18 88 1014.1
20260505052604 12 280 1.6 6.4 0.15 0.15 0.15 88 1014.2
20260505052504 12 280 1.6 6.4 0.15 0.15 0.15 88 1014.2
20260505052404 12 280 1.6 6.4 0.15 0.15 0.15 87 1014.1
20260505052304 12 279 1.6 6.4 0.15 0.15 0.15 87 1014.1
20260505052204 12 279 1.6 6.4 0.13 0.15 0.15 87 1014.1
20260505052104 12 279 1.6 6.4 0.13 0.15 0.15 87 1014.2
20260505052004 12 279 1.6 4.8 0.13 0.15 0.15 87 1014.2
20260505051904 12 280 1.6 4.8 0.10 0.13 0.13 87 1014.1
20260505051804 12 279 1.6 4.8 0.10 0.13 0.13 87 1014.2
20260505051704 12 279 1.6 4.8 0.10 0.13 0.13 87 1014.2
20260505051604 12 279 1.6 4.8 0.10 0.13 0.13 87 1014.1
20260505051504 12 279 0.0 4.8 0.08 0.10 0.10 87 1014.1
20260505051404 12 279 0.0 4.8 0.08 0.10 0.10 87 1014.1
20260505051304 12 279 0.0 4.8 0.08 0.10 0.10 87 1014.1
20260505051204 12 278 0.0 4.8 0.10 0.10 0.10 87 1014.1
20260505051104 12 278 0.0 4.8 0.10 0.10 0.10 87 1014.2
20260505051004 12 278 0.0 4.8 0.10 0.10 0.10 87 1014.2
20260505050904 12 277 0.0 6.4 0.10 0.10 0.10 87 1014.1
20260505050804 12 277 1.6 6.4 0.10 0.10 0.10 87 1014.2
20260505050704 12 277 1.6 6.4 0.10 0.10 0.10 87 1014.2
20260505050603 12 277 1.6 6.4 0.10 0.10 0.10 87 1014.1
20260505050503 12 277 1.6 6.4 0.10 0.10 0.10 87 1014.0
20260505050403 12 277 1.6 6.4 0.10 0.10 0.10 87 1014.0
20260505050303 12 277 1.6 6.4 0.10 0.10 0.10 87 1014.0
20260505050203 12 277 1.6 6.4 0.10 0.10 0.10 86 1014.0
20260505050103 12 278 3.2 8.0 0.10 0.10 0.10 86 1014.0
20260505041704 13 0 0.0 0.0 0.03 0.03 0.03 87 1013.6
20260505041604 13 0 0.0 0.0 0.03 0.03 0.03 87 1013.6
20260505041504 13 0 0.0 0.0 0.03 0.03 0.03 87 1013.6
20260505041404 13 0 0.0 0.0 0.03 0.03 0.03 87 1013.6
20260505041304 13 0 0.0 0.0 0.03 0.03 0.03 86 1013.6
20260505041204 13 0 0.0 0.0 0.00 0.00 0.00 86 1013.6
20260505041104 13 0 0.0 0.0 0.00 0.00 0.00 86 1013.6
20260505041004 13 0 0.0 0.0 0.00 0.00 0.00 86 1013.6
20260505040904 13 0 0.0 0.0 0.00 0.00 0.00 86 1013.6
20260505040803 13 0 0.0 0.0 0.00 0.00 0.00 86 1013.6
20260505040703 13 0 0.0 0.0 0.00 0.00 0.00 86 1013.6
20260505040604 13 0 0.0 0.0 0.00 0.00 0.00 86 1013.6
20260505040503 13 0 0.0 0.0 0.00 0.00 0.00 86 1013.6
20260505040403 13 0 0.0 0.0 0.00 0.00 0.00 86 1013.6
20260505040303 13 0 0.0 0.0 0.00 0.00 0.00 86 1013.6
20260505040203 13 0 0.0 0.0 0.00 0.00 0.00 86 1013.5
20260505040103 13 0 0.0 0.0 0.00 0.00 0.00 86 1013.5
20260505040005 13 0 0.0 0.0 0.00 0.00 0.00 86 1013.5
20260505035903 13 0 0.0 0.0 0.00 0.00 0.00 87 1013.5
20260505035803 13 0 0.0 0.0 0.00 0.00 0.00 87 1013.5
20260505035703 13 0 0.0 0.0 0.00 0.00 0.00 87 1013.5
20260505035603 13 0 0.0 0.0 0.00 0.00 0.00 87 1013.5
20260505035503 13 0 0.0 0.0 0.00 0.00 0.00 87 1013.5
20260505035403 13 0 0.0 0.0 0.00 0.00 0.00 87 1013.5
20260505035304 13 0 0.0 0.0 0.00 0.00 0.00 87 1013.5
20260505035203 13 0 0.0 0.0 0.00 0.00 0.00 87 1013.5
20260505035103 13 0 0.0 0.0 0.00 0.00 0.00 87 1013.6
20260505035004 13 0 0.0 0.0 0.00 0.00 0.00 87 1013.6
20260505034903 13 0 0.0 0.0 0.00 0.00 0.00 87 1013.6
20260505034803 13 0 0.0 0.0 0.00 0.00 0.00 88 1013.6
20260505034703 13 0 0.0 0.0 0.00 0.00 0.00 88 1013.6
20260505034603 13 0 0.0 0.0 0.00 0.00 0.00 88 1013.6
20260505034503 13 0 0.0 0.0 0.00 0.00 0.00 88 1013.6
20260505034403 13 0 0.0 0.0 0.00 0.00 0.00 88 1013.6
20260505034303 13 0 0.0 0.0 0.00 0.00 0.00 88 1013.6
20260505034203 13 0 0.0 0.0 0.00 0.00 0.00 88 1013.6
20260505034103 13 0 0.0 0.0 0.00 0.00 0.00 88 1013.7
20260505034003 13 0 0.0 0.0 0.00 0.00 0.00 88 1013.6
20260505033903 13 0 0.0 0.0 0.00 0.00 0.00 88 1013.6
20260505033803 13 0 0.0 0.0 0.00 0.00 0.00 88 1013.7
20260505033703 13 0 0.0 0.0 0.00 0.00 0.00 88 1013.7
20260505033603 13 0 0.0 0.0 0.00 0.00 0.00 87 1013.7
20260505033503 13 0 0.0 0.0 0.00 0.00 0.00 87 1013.7
20260505033403 13 0 0.0 0.0 0.00 0.00 0.00 87 1013.7
20260505033303 13 0 0.0 0.0 0.00 0.00 0.00 87 1013.7
20260505033203 13 0 0.0 0.0 0.00 0.00 0.00 87 1013.7
20260505033103 13 0 0.0 0.0 0.00 0.00 0.00 87 1013.7
20260505033004 13 0 0.0 0.0 0.00 0.00 0.00 87 1013.7
20260505032904 13 0 0.0 0.0 0.00 0.00 0.00 86 1013.7
20260505032804 13 0 0.0 0.0 0.00 0.00 0.00 86 1013.7
20260505032704 13 0 0.0 0.0 0.00 0.00 0.00 86 1013.7
20260505032604 13 0 0.0 0.0 0.00 0.00 0.00 86 1013.7
20260505032504 13 0 0.0 0.0 0.00 0.00 0.00 86 1013.8
20260505032404 13 0 0.0 0.0 0.00 0.00 0.00 86 1013.8
20260505032304 13 0 0.0 0.0 0.00 0.00 0.00 85 1013.8
20260505032204 13 0 0.0 0.0 0.00 0.00 0.00 85 1013.8
20260505032104 13 0 0.0 0.0 0.00 0.00 0.00 85 1013.8
20260505032004 13 0 0.0 0.0 0.00 0.00 0.00 85 1013.8
20260505031904 13 0 0.0 0.0 0.00 0.00 0.00 85 1013.8
20260505031804 13 0 0.0 0.0 0.00 0.00 0.00 85 1013.8
20260505031704 13 0 0.0 0.0 0.00 0.00 0.00 84 1013.8
20260505031604 13 0 0.0 0.0 0.00 0.00 0.00 84 1013.8
20260505031504 13 0 0.0 0.0 0.00 0.00 0.00 84 1013.8
20260505031404 13 0 0.0 0.0 0.00 0.00 0.00 84 1013.8
20260505031304 13 0 0.0 0.0 0.00 0.00 0.00 84 1013.9
20260505031204 13 0 0.0 0.0 0.00 0.00 0.00 84 1013.9
20260505031104 13 0 0.0 0.0 0.00 0.00 0.00 84 1013.9
20260505031004 13 0 0.0 0.0 0.00 0.00 0.00 84 1013.8
20260505030903 13 0 0.0 0.0 0.00 0.00 0.00 84 1013.9
20260505030803 13 0 0.0 0.0 0.00 0.00 0.00 83 1013.9
20260505030703 13 0 0.0 0.0 0.00 0.00 0.00 83 1013.9
20260505030603 13 0 0.0 0.0 0.00 0.00 0.00 83 1013.9
20260505030503 14 0 0.0 0.0 0.00 0.00 0.00 83 1013.9
20260505030403 14 0 0.0 0.0 0.00 0.00 0.00 83 1014.0
20260505030303 14 0 0.0 0.0 0.00 0.00 0.00 83 1014.0
20260505030203 14 0 0.0 0.0 0.00 0.00 0.00 83 1013.9
20260505030103 14 0 0.0 0.0 0.00 0.00 0.00 83 1013.9
20260505030004 14 0 0.0 0.0 0.00 0.00 0.00 82 1014.0
20260505025903 14 0 0.0 0.0 0.00 0.00 0.00 82 1014.0
20260505025803 14 0 0.0 0.0 0.00 0.00 0.00 82 1014.0
20260505025703 14 0 0.0 0.0 0.00 0.00 0.00 82 1014.0
20260505025603 14 0 0.0 0.0 0.00 0.00 0.00 82 1014.0
20260505025503 14 0 0.0 0.0 0.00 0.00 0.00 82 1014.0
20260505025403 14 0 0.0 0.0 0.00 0.00 0.00 81 1014.1
20260505025304 14 0 0.0 0.0 0.00 0.00 0.00 81 1014.1
20260505025203 14 0 0.0 0.0 0.00 0.00 0.00 81 1014.1
20260505025104 14 0 0.0 0.0 0.00 0.00 0.00 81 1014.1
20260505025004 14 0 0.0 0.0 0.00 0.00 0.00 81 1014.1
20260505024903 14 0 0.0 0.0 0.00 0.00 0.00 80 1014.2
20260505024803 14 0 0.0 0.0 0.00 0.00 0.00 80 1014.2
20260505024703 14 0 0.0 0.0 0.00 0.00 0.00 80 1014.1
20260505024603 14 0 0.0 0.0 0.00 0.00 0.00 80 1014.1
20260505024503 14 0 0.0 0.0 0.00 0.00 0.00 80 1014.1
20260505024403 14 0 0.0 0.0 0.00 0.00 0.00 80 1014.1
20260505024303 14 0 0.0 0.0 0.00 0.00 0.00 79 1014.1
20260505024203 14 0 0.0 0.0 0.00 0.00 0.00 79 1014.1
20260505024103 14 0 0.0 0.0 0.00 0.00 0.00 79 1014.1
20260505024003 14 0 0.0 0.0 0.00 0.00 0.00 79 1014.1
20260505023903 14 0 0.0 0.0 0.00 0.00 0.00 79 1014.2
20260505023803 14 0 0.0 0.0 0.00 0.00 0.00 79 1014.0
20260505023703 14 0 0.0 0.0 0.00 0.00 0.00 79 1014.0
20260505023603 14 0 0.0 0.0 0.00 0.00 0.00 79 1014.1
20260505023503 14 0 0.0 0.0 0.00 0.00 0.00 79 1014.1
20260505023404 14 0 0.0 0.0 0.00 0.00 0.00 78 1014.1
20260505023304 14 0 0.0 0.0 0.00 0.00 0.00 78 1014.1
20260505023204 14 0 0.0 0.0 0.00 0.00 0.00 78 1014.1
20260505023104 14 0 0.0 0.0 0.00 0.00 0.00 78 1014.1
20260505023004 14 0 0.0 0.0 0.00 0.00 0.00 78 1014.1
20260505022904 14 0 0.0 0.0 0.00 0.00 0.00 78 1014.1
20260505022804 14 0 0.0 0.0 0.00 0.00 0.00 78 1014.2
20260505022704 14 0 0.0 0.0 0.00 0.00 0.00 78 1014.2
20260505022604 14 0 0.0 0.0 0.00 0.00 0.00 78 1014.2
20260505022504 14 0 0.0 0.0 0.00 0.00 0.00 78 1014.2
20260505022404 14 0 0.0 0.0 0.00 0.00 0.00 78 1014.2
20260505022304 14 0 0.0 0.0 0.00 0.00 0.00 78 1014.2
20260505022204 14 0 0.0 0.0 0.00 0.00 0.00 78 1014.2
20260505022104 14 0 0.0 0.0 0.00 0.00 0.00 78 1014.2
20260505022004 14 0 0.0 0.0 0.00 0.00 0.00 78 1014.2
20260505021904 14 0 0.0 0.0 0.00 0.00 0.00 78 1014.2
20260505021804 14 0 0.0 0.0 0.00 0.00 0.00 78 1014.2
20260505021704 14 0 0.0 0.0 0.00 0.00 0.00 79 1014.2
20260505021604 14 0 0.0 0.0 0.00 0.00 0.00 79 1014.2
20260505021504 14 0 0.0 0.0 0.00 0.00 0.00 79 1014.3
20260505021404 14 0 0.0 0.0 0.00 0.00 0.00 79 1014.3
20260505021303 14 0 0.0 0.0 0.00 0.00 0.00 79 1014.2
20260505021203 14 0 0.0 0.0 0.00 0.00 0.00 78 1014.2
20260505021103 14 0 0.0 0.0 0.00 0.00 0.00 78 1014.3
20260505021004 14 0 0.0 0.0 0.00 0.00 0.00 78 1014.3
20260505020903 14 0 0.0 0.0 0.00 0.00 0.00 78 1014.3
20260505020803 14 0 0.0 0.0 0.00 0.00 0.00 78 1014.4
20260505020703 14 0 0.0 0.0 0.00 0.00 0.00 78 1014.4
20260505020603 14 0 0.0 0.0 0.00 0.00 0.00 78 1014.3
20260505020503 14 0 0.0 0.0 0.00 0.00 0.00 78 1014.4
20260505020403 14 0 0.0 0.0 0.00 0.00 0.00 78 1014.4
20260505020303 14 0 0.0 0.0 0.00 0.00 0.00 78 1014.3
20260505020203 14 0 0.0 0.0 0.00 0.00 0.00 78 1014.4
20260505020103 14 0 0.0 0.0 0.00 0.00 0.00 78 1014.4
20260505020004 14 0 0.0 0.0 0.00 0.00 0.00 78 1014.4
20260505015903 14 0 0.0 0.0 0.00 0.00 0.00 77 1014.4
20260505015803 14 0 0.0 0.0 0.00 0.00 0.00 77 1014.4
20260505015703 14 0 0.0 0.0 0.00 0.00 0.00 78 1014.4
20260505015603 14 0 0.0 0.0 0.00 0.00 0.00 77 1014.4
20260505015503 14 0 0.0 0.0 0.00 0.00 0.00 77 1014.4
20260505015403 14 0 0.0 0.0 0.00 0.00 0.00 77 1014.4
20260505015303 14 0 0.0 0.0 0.00 0.00 0.00 77 1014.4
20260505015203 15 0 0.0 0.0 0.00 0.00 0.00 77 1014.4
20260505015103 15 0 0.0 0.0 0.00 0.00 0.00 77 1014.4
20260505015003 15 0 0.0 0.0 0.00 0.00 0.00 77 1014.5
20260505014903 15 0 0.0 0.0 0.00 0.00 0.00 77 1014.5
20260505014803 15 0 0.0 0.0 0.00 0.00 0.00 76 1014.5
20260505014703 15 0 0.0 0.0 0.00 0.00 0.00 76 1014.5
20260505014603 15 0 0.0 0.0 0.00 0.00 0.00 76 1014.5
20260505014403 15 0 0.0 0.0 0.00 0.00 0.00 76 1014.5
20260505014303 15 0 0.0 0.0 0.00 0.00 0.00 76 1014.5
20260505014203 15 0 0.0 0.0 0.00 0.00 0.00 76 1014.5
20260505014103 15 0 0.0 0.0 0.00 0.00 0.00 76 1014.5
20260505014003 15 0 0.0 0.0 0.00 0.00 0.00 76 1014.5
20260505013903 15 0 0.0 0.0 0.00 0.00 0.00 76 1014.5
20260505013804 15 0 0.0 0.0 0.00 0.00 0.00 76 1014.5
20260505013704 15 0 0.0 0.0 0.00 0.00 0.00 76 1014.4
20260505013604 15 0 0.0 0.0 0.00 0.00 0.00 76 1014.4
20260505013504 15 0 0.0 0.0 0.00 0.00 0.00 76 1014.5
20260505013404 15 0 0.0 0.0 0.00 0.00 0.00 76 1014.6
20260505013304 15 0 0.0 0.0 0.00 0.00 0.00 76 1014.6
20260505013204 15 0 0.0 0.0 0.00 0.00 0.00 76 1014.6
20260505013104 15 0 0.0 0.0 0.00 0.00 0.00 76 1014.6
20260505013004 15 0 0.0 0.0 0.00 0.00 0.00 76 1014.5
20260505012904 15 0 0.0 0.0 0.00 0.00 0.00 76 1014.6
20260505012804 15 0 0.0 0.0 0.00 0.00 0.00 76 1014.6
20260505012704 15 0 0.0 0.0 0.00 0.00 0.00 76 1014.6
20260505012604 15 0 0.0 0.0 0.00 0.00 0.00 76 1014.6
20260505012504 15 0 0.0 0.0 0.00 0.00 0.00 76 1014.6
20260505012404 15 0 0.0 0.0 0.00 0.00 0.00 76 1014.7
20260505012304 15 280 0.0 3.2 0.00 0.00 0.00 76 1014.7
20260505012204 15 280 0.0 3.2 0.00 0.00 0.00 76 1014.7
20260505012104 15 280 0.0 3.2 0.00 0.00 0.00 76 1014.6
20260505012004 15 279 0.0 3.2 0.00 0.00 0.00 76 1014.6
20260505011903 15 279 0.0 3.2 0.00 0.00 0.00 76 1014.7
20260505011804 14 279 0.0 3.2 0.00 0.00 0.00 76 1014.7
20260505011703 15 279 0.0 3.2 0.00 0.00 0.00 76 1014.6
20260505011603 14 280 0.0 3.2 0.00 0.00 0.00 77 1014.7
20260505011504 15 280 0.0 3.2 0.00 0.00 0.00 76 1014.7
20260505011403 15 281 0.0 3.2 0.00 0.00 0.00 76 1014.7
20260505011303 15 281 0.0 3.2 0.00 0.00 0.00 77 1014.7
20260505011203 15 281 0.0 3.2 0.00 0.00 0.00 76 1014.7
20260505011103 15 281 0.0 3.2 0.00 0.00 0.00 76 1014.8
20260505011004 15 281 0.0 6.4 0.00 0.00 0.00 76 1014.8
20260505010903 15 281 0.0 6.4 0.00 0.00 0.00 76 1014.8
20260505010803 15 281 0.0 6.4 0.00 0.00 0.00 76 1014.8
20260505010703 15 281 1.6 6.4 0.00 0.00 0.00 76 1014.8
20260505010603 15 281 1.6 6.4 0.00 0.00 0.00 76 1014.9
20260505010503 15 281 1.6 6.4 0.00 0.00 0.00 76 1014.9
20260505010403 15 281 1.6 6.4 0.00 0.00 0.00 76 1014.9
20260505010303 15 281 0.0 6.4 0.00 0.00 0.00 76 1014.9
20260505010203 15 281 0.0 6.4 0.00 0.00 0.00 75 1014.9
20260505010103 15 281 0.0 6.4 0.00 0.00 0.00 75 1015.0
20260505010004 15 280 0.0 4.8 0.00 0.00 0.00 75 1015.0
20260505005903 15 279 0.0 4.8 0.00 0.00 0.00 75 1015.1
20260505005803 15 279 0.0 4.8 0.00 0.00 0.00 75 1015.1
20260505005703 15 279 0.0 4.8 0.00 0.00 0.00 75 1015.1
20260505005603 15 278 0.0 4.8 0.00 0.00 0.00 75 1015.1
20260505005503 15 279 0.0 4.8 0.00 0.00 0.00 75 1015.2
20260505005403 15 278 0.0 4.8 0.00 0.00 0.00 75 1015.2
20260505005304 15 277 1.6 8.0 0.00 0.00 0.00 75 1015.3
20260505005203 15 278 1.6 8.0 0.00 0.00 0.00 75 1015.3
20260505005103 15 278 1.6 8.0 0.00 0.00 0.00 75 1015.3
20260505005004 15 278 1.6 8.0 0.00 0.00 0.00 75 1015.4
20260505004903 15 278 1.6 8.0 0.00 0.00 0.00 75 1015.4
20260505004803 15 278 1.6 8.0 0.00 0.00 0.00 75 1015.4
20260505004703 15 278 1.6 8.0 0.00 0.00 0.00 74 1015.4
20260505004603 15 278 1.6 8.0 0.00 0.00 0.00 75 1015.4
20260505004503 15 278 1.6 8.0 0.00 0.00 0.00 74 1015.5
20260505004403 15 278 1.6 8.0 0.00 0.00 0.00 74 1015.5
20260505004303 15 279 1.6 8.0 0.00 0.00 0.00 75 1015.5
20260505004203 15 278 1.6 8.0 0.00 0.00 0.00 75 1015.5
20260505004103 15 278 1.6 8.0 0.00 0.00 0.00 75 1015.5
20260505004007 15 279 1.6 8.0 0.00 0.00 0.00 75 1015.6
20260505003904 15 280 1.6 8.0 0.00 0.00 0.00 75 1015.6
20260505003804 15 279 1.6 8.0 0.00 0.00 0.00 74 1015.6
20260505003503 15 278 3.2 8.0 0.00 0.00 0.00 74 1015.7
20260505003403 15 279 3.2 8.0 0.00 0.00 0.00 74 1015.7
20260505003303 15 278 3.2 9.7 0.00 0.00 0.00 75 1015.7
20260505003204 15 280 3.2 9.7 0.00 0.00 0.00 75 1015.7
20260505003104 15 280 3.2 9.7 0.00 0.00 0.00 75 1015.7
20260505003004 15 282 3.2 9.7 0.00 0.00 0.00 75 1015.7
20260505002904 15 285 3.2 9.7 0.00 0.00 0.00 75 1015.8
20260505002804 15 284 3.2 9.7 0.00 0.00 0.00 75 1015.8
20260505002704 15 285 3.2 9.7 0.00 0.00 0.00 75 1015.8
20260505002604 15 286 3.2 9.7 0.00 0.00 0.00 75 1015.8
20260505002504 15 287 3.2 9.7 0.00 0.00 0.00 75 1015.8
20260505002403 15 287 3.2 9.7 0.00 0.00 0.00 75 1015.9
20260505002304 15 289 1.6 9.7 0.00 0.00 0.00 75 1015.9
20260505002204 15 290 1.6 9.7 0.00 0.00 0.00 76 1015.9
20260505002104 15 291 1.6 9.7 0.00 0.00 0.00 76 1016.0
20260505002004 15 287 1.6 9.7 0.00 0.00 0.00 76 1016.0
20260505001904 15 277 1.6 8.0 0.00 0.00 0.00 76 1016.0
20260505001804 15 278 0.0 4.8 0.00 0.00 0.00 76 1016.0
20260505001704 15 278 0.0 4.8 0.00 0.00 0.00 76 1016.0
20260505001604 15 278 0.0 4.8 0.00 0.00 0.00 76 1016.0
20260505001504 15 279 0.0 3.2 0.00 0.00 0.00 76 1016.0
20260505001403 15 279 0.0 3.2 0.00 0.00 0.00 76 1016.0
20260505001304 15 278 0.0 4.8 0.00 0.00 0.00 76 1016.0
20260505001204 15 276 0.0 6.4 0.00 0.00 0.00 76 1016.0
20260505001103 15 277 1.6 6.4 0.00 0.00 0.00 76 1016.1
20260505001004 15 277 1.6 6.4 0.00 0.00 0.00 76 1016.0
20260505000903 15 277 1.6 6.4 0.00 0.00 0.00 76 1016.0
20260505000803 15 283 1.6 6.4 0.00 0.00 0.00 76 1016.0
20260505000703 15 283 1.6 6.4 0.00 0.00 0.00 76 1016.0
20260505000603 15 283 1.6 6.4 0.00 0.00 0.00 75 1016.0
20260505000503 15 281 1.6 6.4 0.00 0.00 0.00 76 1016.1
20260505000405 15 281 1.6 6.4 0.00 0.00 0.00 75 1016.1
20260505000303 15 282 1.6 6.4 0.00 0.00 0.00 75 1016.1
20260505000204 15 283 1.6 6.4 0.00 0.00 0.00 76 1016.2
20260505000103 15 284 1.6 6.4 0.00 0.00 0.00 76 1016.2
20260505000004 15 285 1.6 6.4 0.00 0.00 0.00 76 1016.2
20260504235903 15 286 1.6 6.4 0.00 0.00 0.00 75 1016.2
20260504235803 15 282 1.6 6.4 0.00 0.00 0.00 75 1016.1
20260504235703 15 282 1.6 6.4 0.00 0.00 0.00 76 1016.2
20260504235603 15 281 1.6 6.4 0.00 0.00 0.00 75 1016.2
20260504235503 15 286 0.0 6.4 0.00 0.00 0.00 76 1016.3
20260504235403 15 289 0.0 6.4 0.00 0.00 0.00 76 1016.3
20260504235304 15 285 0.0 4.8 0.00 0.00 0.00 76 1016.2
20260504235203 15 286 0.0 4.8 0.00 0.00 0.00 76 1016.3
20260504235103 15 286 0.0 4.8 0.00 0.00 0.00 76 1016.3
20260504235003 15 286 0.0 4.8 0.00 0.00 0.00 76 1016.2
20260504234903 15 277 0.0 3.2 0.00 0.00 0.00 76 1016.3
20260504234803 15 278 0.0 3.2 0.00 0.00 0.00 76 1016.3
20260504234703 15 278 0.0 3.2 0.00 0.00 0.00 76 1016.3
20260504234603 15 279 0.0 6.4 0.00 0.00 0.00 76 1016.3
20260504234503 15 279 0.0 6.4 0.00 0.00 0.00 76 1016.2
20260504234403 15 279 0.0 6.4 0.00 0.00 0.00 76 1016.4
20260504234303 15 278 0.0 6.4 0.00 0.00 0.00 76 1016.4
20260504234203 15 278 0.0 6.4 0.00 0.00 0.00 76 1016.3
20260504234103 15 278 0.0 6.4 0.00 0.00 0.00 76 1016.3
20260504234003 15 278 0.0 6.4 0.00 0.00 0.00 76 1016.4
20260504233903 15 278 0.0 6.4 0.00 0.00 0.00 76 1016.4
20260504233803 15 277 0.0 6.4 0.00 0.00 0.00 76 1016.4
20260504233703 15 277 0.0 6.4 0.00 0.00 0.00 76 1016.5
20260504233603 15 276 0.0 6.4 0.00 0.00 0.00 76 1016.5
20260504233504 15 275 0.0 6.4 0.00 0.00 0.00 76 1016.4
20260504233404 15 276 0.0 6.4 0.00 0.00 0.00 76 1016.5
20260504233304 15 275 0.0 3.2 0.00 0.00 0.00 77 1016.5
20260504233204 15 275 0.0 3.2 0.00 0.00 0.00 77 1016.5
20260504233104 15 275 0.0 3.2 0.00 0.00 0.00 76 1016.6
20260504233004 15 274 0.0 3.2 0.00 0.00 0.00 76 1016.6
20260504232904 15 275 0.0 3.2 0.00 0.00 0.00 76 1016.7
20260504232804 15 275 0.0 3.2 0.00 0.00 0.00 76 1016.7
20260504232704 15 277 0.0 4.8 0.00 0.00 0.00 76 1016.7
20260504232604 15 277 0.0 4.8 0.00 0.00 0.00 76 1016.7
20260504232504 15 277 0.0 4.8 0.00 0.00 0.00 76 1016.7
20260504232404 15 284 1.6 6.4 0.00 0.00 0.00 76 1016.7
20260504232304 15 285 1.6 6.4 0.00 0.00 0.00 76 1016.7
20260504232204 15 283 1.6 6.4 0.00 0.00 0.00 75 1016.7
20260504232104 15 282 1.6 6.4 0.00 0.00 0.00 75 1016.7
20260504232004 15 283 1.6 6.4 0.00 0.00 0.00 75 1016.7
20260504231904 15 284 1.6 6.4 0.00 0.00 0.00 75 1016.7
20260504231804 15 284 1.6 6.4 0.00 0.00 0.00 75 1016.7
20260504231704 15 285 1.6 6.4 0.00 0.00 0.00 75 1016.8
20260504231604 15 286 0.0 6.4 0.00 0.00 0.00 75 1016.8
20260504231504 15 288 0.0 6.4 0.00 0.00 0.00 75 1016.8
20260504231403 15 278 0.0 4.8 0.00 0.00 0.00 75 1016.7
20260504231303 15 278 0.0 4.8 0.00 0.00 0.00 75 1016.8
20260504231203 15 281 0.0 4.8 0.00 0.00 0.00 75 1016.8
20260504231103 15 295 0.0 4.8 0.00 0.00 0.00 75 1016.7
20260504231004 15 277 0.0 1.6 0.00 0.00 0.00 75 1016.7
20260504230903 15 277 0.0 1.6 0.00 0.00 0.00 75 1016.7
20260504230803 15 277 0.0 1.6 0.00 0.00 0.00 75 1016.7
20260504230703 15 277 0.0 1.6 0.00 0.00 0.00 75 1016.7
20260504230603 15 276 0.0 3.2 0.00 0.00 0.00 75 1016.7
20260504230503 15 276 0.0 3.2 0.00 0.00 0.00 76 1016.7
20260504230403 15 276 0.0 3.2 0.00 0.00 0.00 76 1016.7
20260504230303 15 276 0.0 3.2 0.00 0.00 0.00 76 1016.8
20260504230203 15 276 0.0 3.2 0.00 0.00 0.00 76 1016.8
20260504230103 15 318 0.0 4.8 0.00 0.00 0.00 76 1016.8
20260504230004 15 315 0.0 4.8 0.00 0.00 0.00 76 1016.8
20260504225903 15 303 0.0 4.8 0.00 0.00 0.00 76 1016.7
20260504225804 15 303 0.0 4.8 0.00 0.00 0.00 76 1016.8
20260504225703 15 293 0.0 4.8 0.00 0.00 0.00 76 1016.8
20260504225603 15 289 0.0 4.8 0.00 0.00 0.00 76 1016.8
20260504225503 15 289 0.0 4.8 0.00 0.00 0.00 76 1016.8
20260504225403 15 289 0.0 4.8 0.00 0.00 0.00 76 1016.8
20260504225304 15 286 0.0 4.8 0.00 0.00 0.00 76 1016.8
20260504225203 15 286 0.0 4.8 0.00 0.00 0.00 76 1016.8
20260504225103 15 274 0.0 4.8 0.00 0.00 0.00 76 1016.8
20260504225003 15 274 0.0 4.8 0.00 0.00 0.00 76 1016.8
20260504224903 15 274 0.0 4.8 0.00 0.00 0.00 76 1016.8
20260504224803 15 274 0.0 4.8 0.00 0.00 0.00 76 1016.9
20260504224703 15 274 0.0 6.4 0.00 0.00 0.00 76 1016.9
20260504224603 15 275 0.0 6.4 0.00 0.00 0.00 76 1016.9
20260504224503 15 275 0.0 6.4 0.00 0.00 0.00 76 1016.9
20260504224403 15 279 0.0 6.4 0.00 0.00 0.00 76 1016.9
20260504224303 15 279 0.0 6.4 0.00 0.00 0.00 76 1016.8
20260504224203 15 279 0.0 6.4 0.00 0.00 0.00 76 1016.9
20260504224103 15 279 0.0 6.4 0.00 0.00 0.00 76 1016.9
20260504224003 15 280 0.0 6.4 0.00 0.00 0.00 76 1016.9
20260504223903 15 280 0.0 6.4 0.00 0.00 0.00 76 1016.9
20260504223803 15 281 0.0 6.4 0.00 0.00 0.00 76 1016.9
20260504223703 15 283 0.0 4.8 0.00 0.00 0.00 76 1017.0
20260504223603 15 296 0.0 3.2 0.00 0.00 0.00 76 1017.0
20260504223503 15 293 0.0 3.2 0.00 0.00 0.00 76 1017.0
20260504223403 15 280 0.0 3.2 0.00 0.00 0.00 76 1017.0
20260504223303 15 281 0.0 3.2 0.00 0.00 0.00 76 1017.1
20260504223203 15 282 0.0 6.4 0.00 0.00 0.00 75 1017.1
20260504223103 15 283 0.0 6.4 0.00 0.00 0.00 75 1017.1
20260504223003 15 283 0.0 6.4 0.00 0.00 0.00 76 1017.1
20260504222903 15 284 0.0 6.4 0.00 0.00 0.00 76 1017.1
20260504222804 15 288 0.0 6.4 0.00 0.00 0.00 76 1017.1
20260504222704 15 298 1.6 6.4 0.00 0.00 0.00 76 1017.1
20260504222604 15 295 1.6 6.4 0.00 0.00 0.00 75 1017.1
20260504222504 15 296 1.6 6.4 0.00 0.00 0.00 75 1017.1
20260504222404 15 298 1.6 6.4 0.00 0.00 0.00 75 1017.1
20260504222305 15 310 1.6 6.4 0.00 0.00 0.00 75 1017.1
20260504222204 15 312 1.6 8.0 0.00 0.00 0.00 75 1017.1
20260504222104 15 320 1.6 9.7 0.00 0.00 0.00 75 1017.1
20260504222004 15 318 1.6 9.7 0.00 0.00 0.00 75 1017.1
20260504221904 15 316 1.6 9.7 0.00 0.00 0.00 75 1017.1
20260504221804 15 315 1.6 9.7 0.00 0.00 0.00 75 1017.1
20260504221704 15 312 1.6 9.7 0.00 0.00 0.00 75 1017.1
20260504221604 16 312 1.6 9.7 0.00 0.00 0.00 75 1017.1
20260504221504 16 310 1.6 9.7 0.00 0.00 0.00 75 1017.1
20260504221404 16 308 1.6 9.7 0.00 0.00 0.00 75 1017.1
20260504221304 16 304 1.6 9.7 0.00 0.00 0.00 75 1017.1
20260504221204 16 303 1.6 9.7 0.00 0.00 0.00 75 1017.2
20260504221104 16 289 1.6 6.4 0.00 0.00 0.00 75 1017.2
20260504221004 16 287 1.6 4.8 0.00 0.00 0.00 75 1017.2
20260504220903 16 286 1.6 4.8 0.00 0.00 0.00 75 1017.2
20260504220803 16 289 1.6 4.8 0.00 0.00 0.00 75 1017.2
20260504220703 16 286 0.0 4.8 0.00 0.00 0.00 75 1017.2
20260504220603 16 290 0.0 4.8 0.00 0.00 0.00 74 1017.2
20260504220503 16 292 0.0 4.8 0.00 0.00 0.00 74 1017.2
20260504220403 16 294 0.0 4.8 0.00 0.00 0.00 75 1017.3
20260504220303 16 317 0.0 6.4 0.00 0.00 0.00 74 1017.3
20260504220203 16 324 0.0 6.4 0.00 0.00 0.00 75 1017.2
20260504220103 16 324 0.0 6.4 0.00 0.00 0.00 74 1017.3
20260504220035 16 318 0.0 6.4 0.00 0.00 0.00 74 1017.3
20260504215903 16 326 1.6 6.4 0.00 0.00 0.00 74 1017.3
20260504215803 16 325 0.0 6.4 0.00 0.00 0.00 74 1017.3
20260504215703 16 318 1.6 6.4 0.00 0.00 0.00 74 1017.3
20260504215603 16 321 1.6 6.4 0.00 0.00 0.00 74 1017.4
20260504215503 16 323 1.6 6.4 0.00 0.00 0.00 74 1017.4
20260504215403 16 324 1.6 6.4 0.00 0.00 0.00 74 1017.3
20260504215304 16 314 0.0 4.8 0.00 0.00 0.00 74 1017.4
20260504215203 16 313 0.0 4.8 0.00 0.00 0.00 74 1017.4
20260504215103 16 321 0.0 4.8 0.00 0.00 0.00 74 1017.3
20260504215003 16 326 0.0 4.8 0.00 0.00 0.00 74 1017.3
20260504214903 16 313 0.0 4.8 0.00 0.00 0.00 74 1017.4
20260504214803 16 301 0.0 4.8 0.00 0.00 0.00 74 1017.4
20260504214703 16 303 0.0 4.8 0.00 0.00 0.00 74 1017.4
20260504214603 16 285 0.0 4.8 0.00 0.00 0.00 75 1017.4
20260504214503 16 285 0.0 4.8 0.00 0.00 0.00 75 1017.4
20260504214403 16 285 0.0 4.8 0.00 0.00 0.00 75 1017.4
20260504214303 16 274 0.0 4.8 0.00 0.00 0.00 75 1017.4
20260504214203 16 273 0.0 4.8 0.00 0.00 0.00 75 1017.4
20260504214103 16 273 0.0 4.8 0.00 0.00 0.00 75 1017.4
20260504214003 16 273 0.0 4.8 0.00 0.00 0.00 75 1017.4
20260504213903 16 273 0.0 4.8 0.00 0.00 0.00 75 1017.3
20260504213803 16 274 0.0 4.8 0.00 0.00 0.00 74 1017.4
20260504213703 16 274 0.0 4.8 0.00 0.00 0.00 74 1017.4
20260504213603 16 276 0.0 1.6 0.00 0.00 0.00 75 1017.4
20260504213503 16 275 0.0 1.6 0.00 0.00 0.00 74 1017.4
20260504213403 16 275 0.0 1.6 0.00 0.00 0.00 74 1017.4
20260504213303 16 275 0.0 1.6 0.00 0.00 0.00 74 1017.5
20260504213203 16 275 0.0 1.6 0.00 0.00 0.00 74 1017.5
20260504213103 16 275 0.0 1.6 0.00 0.00 0.00 74 1017.5
20260504213004 16 275 0.0 1.6 0.00 0.00 0.00 74 1017.5
20260504212904 16 275 0.0 1.6 0.00 0.00 0.00 74 1017.5
20260504212804 16 275 0.0 1.6 0.00 0.00 0.00 74 1017.5
20260504212704 16 275 0.0 1.6 0.00 0.00 0.00 74 1017.5
20260504212603 16 274 0.0 1.6 0.00 0.00 0.00 74 1017.5
20260504212504 16 0 0.0 0.0 0.00 0.00 0.00 74 1017.6
20260504212404 16 278 0.0 1.6 0.00 0.00 0.00 74 1017.6
20260504212304 16 278 0.0 1.6 0.00 0.00 0.00 74 1017.6
20260504212204 16 278 0.0 1.6 0.00 0.00 0.00 74 1017.6
20260504212104 16 278 0.0 1.6 0.00 0.00 0.00 74 1017.6
20260504212004 16 278 0.0 1.6 0.00 0.00 0.00 74 1017.6
20260504211904 16 278 0.0 1.6 0.00 0.00 0.00 74 1017.6
20260504211804 16 278 0.0 1.6 0.00 0.00 0.00 73 1017.6
20260504211704 16 278 0.0 1.6 0.00 0.00 0.00 73 1017.7
20260504211603 16 278 0.0 1.6 0.00 0.00 0.00 73 1017.7
20260504211504 16 278 0.0 1.6 0.00 0.00 0.00 73 1017.7
20260504211404 16 279 0.0 1.6 0.00 0.00 0.00 73 1017.7
20260504211304 16 279 0.0 1.6 0.00 0.00 0.00 73 1017.7
20260504211204 16 279 0.0 1.6 0.00 0.00 0.00 73 1017.7
20260504211104 16 279 0.0 1.6 0.00 0.00 0.00 73 1017.7
20260504211004 16 279 0.0 1.6 0.00 0.00 0.00 73 1017.6
20260504210904 16 279 0.0 1.6 0.00 0.00 0.00 73 1017.6
20260504210803 16 279 0.0 1.6 0.00 0.00 0.00 72 1017.7
20260504210704 16 279 0.0 1.6 0.00 0.00 0.00 72 1017.7
20260504210603 16 279 0.0 1.6 0.00 0.00 0.00 72 1017.7
20260504210503 16 279 0.0 1.6 0.00 0.00 0.00 72 1017.6
20260504210403 16 279 0.0 1.6 0.00 0.00 0.00 72 1017.7
20260504210303 16 279 0.0 1.6 0.00 0.00 0.00 72 1017.7
20260504210204 16 275 0.0 1.6 0.00 0.00 0.00 72 1017.6
20260504210004 16 275 0.0 3.2 0.00 0.00 0.00 71 1017.7
20260504205903 16 275 0.0 3.2 0.00 0.00 0.00 71 1017.6
20260504205803 16 275 0.0 3.2 0.00 0.00 0.00 71 1017.6
20260504205703 16 275 0.0 3.2 0.00 0.00 0.00 71 1017.6
20260504205603 16 275 0.0 3.2 0.00 0.00 0.00 71 1017.6
20260504205503 16 275 0.0 3.2 0.00 0.00 0.00 70 1017.6
20260504205403 16 275 0.0 3.2 0.00 0.00 0.00 70 1017.7
20260504205304 16 275 0.0 3.2 0.00 0.00 0.00 70 1017.7
20260504205203 16 275 0.0 3.2 0.00 0.00 0.00 70 1017.6
20260504205103 16 276 0.0 1.6 0.00 0.00 0.00 70 1017.6
20260504205004 16 276 0.0 1.6 0.00 0.00 0.00 70 1017.6
20260504204903 16 276 0.0 1.6 0.00 0.00 0.00 70 1017.7
20260504204803 16 276 0.0 1.6 0.00 0.00 0.00 69 1017.7
20260504204703 16 276 0.0 1.6 0.00 0.00 0.00 69 1017.7
20260504204603 16 274 0.0 3.2 0.00 0.00 0.00 69 1017.7
20260504204503 16 274 0.0 3.2 0.00 0.00 0.00 69 1017.7
20260504204403 16 274 0.0 3.2 0.00 0.00 0.00 69 1017.7
20260504204303 16 274 0.0 3.2 0.00 0.00 0.00 68 1017.7
20260504204203 16 274 0.0 3.2 0.00 0.00 0.00 68 1017.6
20260504204103 16 274 0.0 3.2 0.00 0.00 0.00 68 1017.7
20260504204003 16 274 0.0 3.2 0.00 0.00 0.00 68 1017.7
20260504203903 16 274 0.0 3.2 0.00 0.00 0.00 68 1017.7
20260504203803 16 274 0.0 3.2 0.00 0.00 0.00 68 1017.7
20260504203703 16 274 0.0 3.2 0.00 0.00 0.00 68 1017.7
20260504203603 16 274 0.0 1.6 0.00 0.00 0.00 68 1017.7
20260504203503 16 274 0.0 1.6 0.00 0.00 0.00 67 1017.7
20260504203403 16 274 0.0 1.6 0.00 0.00 0.00 67 1017.7
20260504203303 16 274 0.0 1.6 0.00 0.00 0.00 67 1017.8
20260504203203 16 274 0.0 1.6 0.00 0.00 0.00 67 1017.8
20260504203103 16 0 0.0 0.0 0.00 0.00 0.00 67 1017.8
20260504203003 16 0 0.0 0.0 0.00 0.00 0.00 67 1017.8
20260504202903 16 0 0.0 0.0 0.00 0.00 0.00 67 1017.8
20260504202803 16 0 0.0 0.0 0.00 0.00 0.00 66 1017.8
20260504202703 17 0 0.0 0.0 0.00 0.00 0.00 66 1017.8
20260504202603 17 0 0.0 0.0 0.00 0.00 0.00 66 1017.7
20260504202503 17 0 0.0 0.0 0.00 0.00 0.00 66 1017.7
20260504202404 17 0 0.0 0.0 0.00 0.00 0.00 66 1017.6
20260504202305 17 0 0.0 0.0 0.00 0.00 0.00 66 1017.7
20260504202204 17 0 0.0 0.0 0.00 0.00 0.00 66 1017.7
20260504202104 17 0 0.0 0.0 0.00 0.00 0.00 66 1017.7
20260504202004 17 0 0.0 0.0 0.00 0.00 0.00 66 1017.7
20260504201904 17 0 0.0 0.0 0.00 0.00 0.00 65 1017.7
20260504201804 17 0 0.0 0.0 0.00 0.00 0.00 66 1017.7
20260504201704 17 0 0.0 0.0 0.00 0.00 0.00 65 1017.7
20260504201604 17 0 0.0 0.0 0.00 0.00 0.00 65 1017.7
20260504201504 17 0 0.0 0.0 0.00 0.00 0.00 65 1017.6
20260504201404 17 0 0.0 0.0 0.00 0.00 0.00 65 1017.6
20260504201304 17 0 0.0 0.0 0.00 0.00 0.00 65 1017.6
20260504201203 17 0 0.0 0.0 0.00 0.00 0.00 64 1017.6
20260504201104 17 0 0.0 0.0 0.00 0.00 0.00 64 1017.7
20260504201004 17 0 0.0 0.0 0.00 0.00 0.00 64 1017.7
20260504200904 17 0 0.0 0.0 0.00 0.00 0.00 64 1017.7
20260504200804 17 0 0.0 0.0 0.00 0.00 0.00 63 1017.7
20260504200704 17 0 0.0 0.0 0.00 0.00 0.00 63 1017.7
20260504200604 17 0 0.0 0.0 0.00 0.00 0.00 63 1017.7
20260504200504 17 0 0.0 0.0 0.00 0.00 0.00 63 1017.6
20260504200404 17 0 0.0 0.0 0.00 0.00 0.00 63 1017.6
20260504200304 17 0 0.0 0.0 0.00 0.00 0.00 62 1017.6
20260504200204 17 0 0.0 0.0 0.00 0.00 0.00 63 1017.6
20260504200103 17 0 0.0 0.0 0.00 0.00 0.00 62 1017.6
20260504200004 17 0 0.0 0.0 0.00 0.00 0.00 62 1017.6
20260504195903 17 0 0.0 0.0 0.00 0.00 0.00 62 1017.6
20260504195803 17 0 0.0 0.0 0.00 0.00 0.00 62 1017.7
20260504195703 17 0 0.0 0.0 0.00 0.00 0.00 62 1017.6
20260504195603 17 0 0.0 0.0 0.00 0.00 0.00 61 1017.6
20260504195503 17 276 0.0 1.6 0.00 0.00 0.00 61 1017.5
20260504195403 17 276 0.0 1.6 0.00 0.00 0.00 61 1017.5
20260504195304 17 276 0.0 1.6 0.00 0.00 0.00 61 1017.5
20260504195203 17 276 0.0 1.6 0.00 0.00 0.00 60 1017.5
20260504195103 17 276 0.0 1.6 0.00 0.00 0.00 60 1017.5
20260504195004 17 276 0.0 1.6 0.00 0.00 0.00 60 1017.4